sat.trackr.live / text

‹ back to catalog

STARLINK-2326

NORAD 47870 · 2021-021L

PAYLOAD ACTIVE UNKNOWN

§ Identity

Operator
Country
US
Launch date
2021-03-14
Launch site
AFETR
Launch vehicle
Mass (kg)
RCS (m²)

Purposes: comms

External: N2YO · Heavens-Above · Gunter

§ Orbital elements

Epoch: 2026-09-20T03:53:31.373088Z

Period
94.01 min
Inclination
53.1607°
Eccentricity
0.0001496
Mean motion
15.31694960 rev/d
Perigee alt
469.7 km
Apogee alt
471.8 km
Semi-major
6,848.9 km
B*
-4.3521e-5
RAAN
95.9420°
Arg perigee
81.1867°
Mean anomaly
278.9304°
Rev number
30,576

§ Raw data

STARLINK-23261 47870U 21021L   26263.16216867 -.00001715  00000+0 -43521-4 0  99922 47870  53.1607  95.9420 0001496  81.1867 278.9304 15.31694960305768

JSON: /api/v1/satellites/47870 · /tle

For live sub-satellite position, see the globe view (requires WebGL).

§ Visibility from observer

Set your observer location to see the next 7 days of passes ≥ 10°. The values pass through the URL so the page stays shareable.

No JS? Fill the form by hand. The geolocation button needs JavaScript.